Location: Cisewo
(53.3833°N, 14.9000°E)
Time: 12:06:31
(UTC+00:00)

Cosmos 1954 Rocket - Pass Details

Date: 18 April 2021
Orbit: 752 x 781 km, 74.0° (Epoch: 14 May)

Event Time Altitude Azimuth Distance (km) Brightness Sun altitude
Exits shadow 21:12:19 38° 199° (SSW) 1,143 4.5 -21.5°
Maximum altitude 21:14:21 84° 115° (ESE) 764 3.8 -21.7°
Drops below altitude 10° 21:19:33 10° 27° (NNE) 2,289 6.9 -22.0°
Sets 21:21:56 0° 27° (NNE) 3,220 7.7 -22.2°
